Flag for Germany Weather past 2 weeks in Schorndorf, Baden-Württemberg, Germany

Now
22 °F

Light snow. Low clouds.


Feels Like: 22 °F
Forecast: 18 / 32 °F
Wind: 2 mph from South

Location: Stuttgart-Echterdingen

Current Time: Dec 29, 2014 at 12:47:52 PM

Latest Report: Dec 29, 2014 at 12:00 PM


Visibility: 4 mi

Pressure: 30.50 "Hg

Humidity: 88%

Dew point: 19 °F

Location of SchorndorfLocation

Historic Weather in Schorndorf — Graph

°F

Schorndorf temperature yesterday

Maximum temperature yesterday: 32 °F (at 12:00 AM)
Minimum temperature yesterday: 16 °F (at 11:00 PM)
Average temperature yesterday: 25 °F

Past Weeks' High & Low Weather Summary

 TemperatureHumidityPressure
High54 °F (Dec 23, 1:00 PM)98% (Dec 16, 6:00 AM)30.62 "Hg (Dec 16, 6:00 AM)
Low9 °F (Dec 29, 4:00 AM)38% (Dec 23, 3:00 PM)29.44 "Hg (Dec 27, 5:00 PM)
Average40 °F82%30.17 "Hg
* Reported Dec 14 11:00 AM — Dec 29 11:00 AM, Schorndorf, Weather by CustomWeather, © 2014

Note: Actual official high and low records may vary slightly from our data, if they occured in-between our weather recording intervals... More about our weather records

Advertising

Schorndorf weather history for previous 24 hours

 ConditionsComfort  
Time TempWeatherWind HumidityBarometerVisibility
11:00 AM
Dec 29
20 °FLight snow. Low clouds.2 mph86%30.52 "Hg4 mi
9:00 AM17 °FLight snow. Low clouds.2 mph83%30.53 "Hg4 mi
8:00 AM15 °FOvercast.3 mph81%30.54 "Hg25 mi
7:00 AM14 °FOvercast.2 mph82%30.55 "Hg19 mi
6:00 AM14 °FOvercast.2 mph85%30.58 "Hg19 mi
5:00 AM11 °FPassing clouds.2 mph91%30.61 "Hg19 mi
4:00 AM9 °FPassing clouds.1 mph89%30.62 "Hg19 mi
3:00 AM11 °FPassing clouds.1 mph82%30.61 "Hg19 mi
2:00 AM10 °FPassing clouds.1 mph88%30.60 "Hg19 mi
1:00 AM11 °FClear.1 mph90%30.59 "Hg19 mi
12:00 AM12 °FClear.2 mph84%30.58 "Hg19 mi
11:00 PM
Dec 28
16 °FClear.1 mph77%30.56 "Hg19 mi
9:00 PM19 °FClear.3 mph65%30.50 "Hg19 mi
8:00 PM19 °FClear.3 mph66%30.46 "Hg19 mi
7:00 PM19 °FClear.2 mph69%30.42 "Hg16 mi
6:00 PM20 °FPassing clouds.2 mph68%30.38 "Hg12 mi
5:00 PM20 °FPassing clouds.3 mph71%30.32 "Hg12 mi
4:00 PM22 °FScattered clouds.5 mph72%30.27 "Hg12 mi
3:00 PM23 °FPartly sunny.6 mph74%30.21 "Hg12 mi
2:00 PM24 °FOvercast.5 mph80%30.15 "Hg11 mi
1:00 PM25 °FLight snow. Low clouds.6 mph83%30.10 "Hg4 mi
12:00 PM25 °FLight snow. Low clouds.6 mph88%30.07 "Hg2 mi
Weather by CustomWeather, © 2014

See weather overviewHow to use our weather pages